Terug naar catalogus

STARLINK-2389

ActiefCommunicatieVLEO
NORAD 47808·PAYLOAD·🇺🇸 United States

Gelanceerd Mar 11, 2021 vanaf Cape Canaveral Space Force Station

Loading…

Volgende Passages (komende 24 uur)

TLE

VersSource: CelesTrak SupGP

Epoch: Sep 15, 2026, 01:36 UTC

1 47808C 21018X   26258.06715278 -.00004256  00000+0 -13684-3 0  2589
2 47808  53.1583  81.3263 0001285  88.9623 164.7417 15.31707979    19

Volg STARLINK-2389 in realtime met AllMySat

Download on the App Store